This demonstration page uses our WeatherBlox Daily Observations layout. Learn more.

Left ArrowRight Arrow

36.17497, -115.13722

Hourly Observations for March 28, 2021

Temp ( °F °C ) Dew Point ( °F °C ) Humidity (%) Winds ( mph kmh ) Pressure ( in mb ) Visibility ( mi km ) Precip ( " mm )
12:53 am 00:53 Clear 57 13.9 22 -5.6 26 26 NNW 5 7 30.29 1026 10 16 0.00 0.00
1:53 am 01:53 Clear 56 13.3 22 -5.6 27 27 NW 3 6 30.29 1026 10 16 0.00 0.00
2:53 am 02:53 Clear 54 12.2 22 -5.6 29 29 Calm 30.28 1026 10 16 0.00 0.00
3:53 am 03:53 Clear 53 11.7 23 -5 31 31 Calm 30.28 1025 10 16 0.00 0.00
4:53 am 04:53 Clear 51 10.6 24 -4.4 35 35 NW 5 7 30.28 1025 10 16 0.00 0.00
5:53 am 05:53 Clear 51 10.6 23 -5 33 33 NW 5 7 30.29 1026 10 16 0.00 0.00
6:53 am 06:53 Sunny 51 10.6 24 -4.4 35 35 WNW 7 11 30.31 1026 10 16 0.00 0.00
7:53 am 07:53 Sunny 56 13.3 25 -3.9 30 30 Calm 30.32 1027 10 16 0.00 0.00
8:53 am 08:53 Sunny 61 16.1 22 -5.6 22 22 Calm 30.32 1027 10 16 0.00 0.00
9:53 am 09:53 Sunny 66 18.9 23 -5 19 19 Calm 30.32 1027 10 16 0.00 0.00
10:53 am 10:53 Sunny 69 20.6 23 -5 17 17 VRB 3 6 30.30 1026 10 16 0.00 0.00
11:53 am 11:53 Sunny 71 21.7 23 -5 16 16 Calm 30.27 1025 10 16 0.00 0.00
12:53 pm 12:53 Sunny 74 23.3 23 -5 15 15 VRB 3 6 30.24 1024 10 16 0.00 0.00
1:53 pm 13:53 Sunny 75 23.9 22 -5.6 14 14 E 8 13 30.19 1023 10 16 0.00 0.00
2:53 pm 14:53 Sunny 77 25 22 -5.6 13 13 Calm 30.15 1021 10 16 0.00 0.00
3:53 pm 15:53 Sunny 78 25.6 21 -6.1 12 12 ESE 6 9 30.12 1020 10 16 0.00 0.00
4:53 pm 16:53 Sunny 79 26.1 20 -6.7 11 11 VRB 3 6 30.09 1019 10 16 0.00 0.00
5:53 pm 17:53 Sunny 78 25.6 18 -7.8 10 10 E 6 9 30.06 1018 10 16 0.00 0.00
6:53 pm 18:53 Sunny 76 24.4 18 -7.8 11 11 E 3 6 30.05 1018 10 16 0.00 0.00
7:53 pm 19:53 Clear 73 22.8 19 -7.2 13 13 NE 5 7 30.04 1017 10 16 0.00 0.00
8:53 pm 20:53 Clear 70 21.1 21 -6.1 16 16 Calm 30.05 1018 10 16 0.00 0.00
9:53 pm 21:53 Clear 65 18.3 23 -5 20 20 NW 6 9 30.05 1018 10 16 0.00 0.00
10:53 pm 22:53 Clear 63 17.2 24 -4.4 23 23 WNW 6 9 30.04 1017 10 16 0.00 0.00
11:53 pm 23:53 Clear 60 15.6 23 -5 24 24 NW 6 9 30.03 1017 10 16 0.00 0.00

Powered by AerisWeather